Weather History for Portoroz, Slovenia

Change the Weather History Date:

Sunday, November 4, 2012

  Actual Average (LIVT) Record (LIVT)
Temperature  
Mean Temperature 62 °F -  
Max Temperature 68 °F 59 °F 71 °F (2004)
Min Temperature 57 °F 51 °F 41 °F (2006)
Degree Days  
Heating Degree Days 2    
Growing Degree Days 12 (Base 50)    
Moisture  
Dew Point 57 °F    
Average Humidity 84    
Maximum Humidity 94    
Minimum Humidity 77    
Precipitation  
Precipitation 0.00 in - - ()
Sea Level Pressure  
Sea Level Pressure 29.80 in    
Wind  
Wind Speed 8 mph ()    
Max Wind Speed 16 mph    
Max Gust Speed 33 mph    
Visibility 6.1 miles    
Events Rain    
Averages and records for this station are not official NWS values.
T = Trace of Precipitation, MM = Missing Value Source: Averaged Metar Reports

Daily Weather History Graph

Daily Weather History Graph

Search for Another Location

Airport:

Trip Planner

Search our weather history database for the weather conditions in past years. The results will help you decide how hot, cold, wet, or windy it might be!

Date:

Astronomy

Nov. 04, 2012 Rise Set
Actual Time 6:49 AM CET 4:48 PM CET
Civil Twilight 6:18 AM CET 5:19 PM CET
Nautical Twilight 5:43 AM CET 5:54 PM CET
Astronomical Twilight 5:08 AM CET 6:28 PM CET
Moon 9:06 PM CET (11/4) 11:26 AM CET (11/4)
Length of Visible Light 11h 00m
Length of Day
9h 58m
Waning Gibbous, 74% of the Moon is Illuminated
Nov 4
Waning Gibbous
Nov 7
Last Quarter
Nov 13
New
Nov 20
First Quarter
Nov 28
Full

Hourly Weather History & Observations

Time (CET) Temp. Dew Point Humidity Pressure Visibility Wind Dir Wind Speed Gust Speed Precip Events Conditions
12:00 AM 60.8 °F 53.6 °F 77% 29.92 in 6.2 mi SSE 6.9 mph - N/A   Unknown
12:30 AM 57.2 °F 53.6 °F 88% 29.92 in 6.2 mi SSE 5.8 mph - N/A   Unknown
1:00 AM 57.2 °F 53.6 °F 88% 29.92 in 6.2 mi SSE 5.8 mph - N/A   Unknown
1:30 AM 57.2 °F 53.6 °F 88% 29.92 in 6.2 mi SE 4.6 mph - N/A   Unknown
2:00 AM 59.0 °F 55.4 °F 88% 29.92 in 6.2 mi SSE 5.8 mph - N/A   Unknown
2:30 AM 59.0 °F 55.4 °F 88% 29.92 in 6.2 mi SE 5.8 mph - N/A   Unknown
3:00 AM 59.0 °F 55.4 °F 88% 29.89 in 6.2 mi SE 4.6 mph - N/A   Mostly Cloudy
3:30 AM 59.0 °F 55.4 °F 88% 29.89 in 6.2 mi SE 4.6 mph - N/A   Mostly Cloudy
4:00 AM 60.8 °F 55.4 °F 82% 29.89 in 6.2 mi SE 9.2 mph - N/A   Mostly Cloudy
4:30 AM 60.8 °F 55.4 °F 82% 29.89 in 6.2 mi SE 10.4 mph - N/A   Mostly Cloudy
5:00 AM 60.8 °F 55.4 °F 82% 29.89 in 6.2 mi SE 5.8 mph - N/A   Mostly Cloudy
5:30 AM 60.8 °F 55.4 °F 82% 29.89 in 6.2 mi SSE 4.6 mph - N/A   Mostly Cloudy
6:00 AM 60.8 °F 55.4 °F 82% 29.86 in 6.2 mi SSE 4.6 mph - N/A   Mostly Cloudy
6:30 AM 60.8 °F 55.4 °F 82% 29.86 in 6.2 mi ESE 3.5 mph - N/A   Mostly Cloudy
7:00 AM 60.8 °F 55.4 °F 82% 29.89 in 6.2 mi SE 5.8 mph - N/A   Mostly Cloudy
7:30 AM 60.8 °F 55.4 °F 82% 29.89 in 6.2 mi ESE 5.8 mph - N/A   Mostly Cloudy
8:00 AM 60.8 °F 55.4 °F 82% 29.89 in 6.2 mi ESE 8.1 mph - N/A   Mostly Cloudy
8:30 AM 62.6 °F 55.4 °F 77% 29.89 in 6.2 mi SSE 8.1 mph - N/A   Mostly Cloudy
9:00 AM 62.6 °F 57.2 °F 82% 29.89 in 5.6 mi SSE 3.5 mph - N/A Rain Light Rain
9:30 AM 62.6 °F 57.2 °F 82% 29.89 in 6.2 mi Variable 2.3 mph - N/A   Mostly Cloudy
10:00 AM 62.6 °F 57.2 °F 82% 29.86 in 6.2 mi SE 4.6 mph - N/A   Mostly Cloudy
10:30 AM 64.4 °F 57.2 °F 77% 29.86 in 6.2 mi SSE 5.8 mph - N/A   Overcast
11:00 AM 60.8 °F 57.2 °F 88% 29.89 in 4.3 mi South 12.7 mph - N/A Rain Light Rain
11:30 AM 60.8 °F 57.2 °F 88% 29.86 in 6.2 mi SSE 12.7 mph - N/A Rain Light Rain
12:00 PM 59.0 °F 57.2 °F 94% 29.86 in 5.0 mi SSE 12.7 mph - N/A Rain Light Rain
12:30 PM 59.0 °F 57.2 °F 94% 29.86 in 6.2 mi SSE 11.5 mph - N/A Rain Light Rain
1:00 PM 59.0 °F 57.2 °F 94% 29.83 in 6.2 mi SE 5.8 mph - N/A   Overcast
1:30 PM 60.8 °F 57.2 °F 88% 29.80 in 6.2 mi SE 9.2 mph 23.0 mph N/A   Overcast
2:00 PM 60.8 °F 57.2 °F 88% 29.80 in 6.2 mi SE 11.5 mph - N/A   Overcast
2:30 PM 60.8 °F 57.2 °F 88% 29.77 in 3.7 mi SE 12.7 mph - N/A Rain Rain
3:00 PM 60.8 °F 57.2 °F 88% 29.77 in 6.2 mi SE 10.4 mph - N/A Rain Light Rain
3:30 PM 60.8 °F 57.2 °F 88% 29.77 in 6.2 mi SE 11.5 mph 24.2 mph N/A   Overcast
4:00 PM 62.6 °F 57.2 °F 82% 29.74 in 6.2 mi SE 13.8 mph 26.5 mph N/A   Overcast
4:30 PM 64.4 °F 57.2 °F 77% 29.74 in 6.2 mi SE 12.7 mph - N/A   Overcast
5:00 PM 64.4 °F 59.0 °F 83% 29.74 in 6.2 mi SE 12.7 mph - N/A   Overcast
5:30 PM 64.4 °F 59.0 °F 83% 29.74 in 6.2 mi SSE 13.8 mph 26.5 mph N/A   Overcast
6:00 PM 66.2 °F 59.0 °F 78% 29.74 in 6.2 mi SE 12.7 mph - N/A   Mostly Cloudy
6:30 PM 66.2 °F 59.0 °F 78% 29.74 in 6.2 mi SSE 12.7 mph 26.5 mph N/A   Mostly Cloudy
7:00 PM 66.2 °F 59.0 °F 78% 29.71 in 6.2 mi SE 15.0 mph 27.6 mph N/A   Mostly Cloudy
7:30 PM 66.2 °F 59.0 °F 78% 29.71 in 6.2 mi SE 12.7 mph 25.3 mph N/A   Mostly Cloudy
8:00 PM 66.2 °F 60.8 °F 83% 29.68 in 6.2 mi SSE 12.7 mph - N/A Rain Light Rain
8:30 PM 66.2 °F 60.8 °F 83% 29.65 in 6.2 mi SE 13.8 mph 26.5 mph N/A   Overcast
9:00 PM 66.2 °F 60.8 °F 83% 29.65 in 6.2 mi SE 12.7 mph 25.3 mph N/A   Mostly Cloudy
9:30 PM 66.2 °F 60.8 °F 83% 29.62 in 6.2 mi SE 13.8 mph 27.6 mph N/A   Mostly Cloudy
10:00 PM 66.2 °F 60.8 °F 83% 29.62 in 6.2 mi SE 15.0 mph 33.4 mph N/A   Mostly Cloudy
10:30 PM 68.0 °F 60.8 °F 78% 29.59 in 6.2 mi SE 15.0 mph - N/A   Mostly Cloudy
11:00 PM 68.0 °F 60.8 °F 78% 29.56 in 6.2 mi SE 15.0 mph 27.6 mph N/A   Unknown
11:30 PM 68.0 °F 60.8 °F 78% 29.56 in 6.2 mi SE 16.1 mph 27.6 mph N/A   Unknown